| time (UTC) | temp F | wind direction | speed knots | gust knots | rain 1hr in | rain 24hr in | rain mn in | humidity % | barometer mb |
| 20260509151053 | 70 | 0 | 0.0 | 1.7 | 0.00 | 0.00 | 0.00 | 61 | 1014.8 |
| 20260509150050 | 71 | 192 | 0.9 | 3.5 | 0.00 | 0.00 | 0.00 | 59 | 1015.0 |
| 20260509145047 | 71 | 68 | 0.0 | 1.7 | 0.00 | 0.00 | 0.00 | 58 | 1014.9 |
| 20260509144103 | 70 | 0 | 0.0 | 1.7 | 0.00 | 0.00 | 0.00 | 58 | 1015.0 |
| 20260509143040 | 70 | 322 | 0.9 | 3.5 | 0.00 | 0.00 | 0.00 | 59 | 1015.2 |
| 20260509142037 | 70 | 285 | 0.9 | 3.5 | 0.00 | 0.00 | 0.00 | 61 | 1015.2 |
| 20260509141054 | 70 | 350 | 0.9 | 2.6 | 0.00 | 0.00 | 0.00 | 59 | 1015.3 |
| 20260509135027 | 69 | 342 | 0.0 | 1.7 | 0.00 | 0.00 | 0.00 | 63 | 1015.6 |
| 20260509134024 | 70 | 90 | 0.0 | 1.7 | 0.00 | 0.00 | 0.00 | 58 | 1015.8 |
| 20260509133021 | 68 | 0.0 | 1.7 | 0.00 | 0.00 | 0.00 | 60 | 1015.9 | |
| 20260509132038 | 67 | 90 | 0.0 | 1.7 | 0.00 | 0.00 | 0.00 | 63 | 1016.0 |
| 20260509130111 | 68 | 90 | 0.0 | 2.6 | 0.00 | 0.00 | 0.00 | 59 | 1016.2 |
| 20260509125111 | 69 | 135 | 0.0 | 1.7 | 0.00 | 0.00 | 0.00 | 63 | 1016.3 |
| 20260509124105 | 69 | 142 | 0.9 | 2.6 | 0.00 | 0.00 | 0.00 | 59 | 1016.4 |
| 20260509121115 | 69 | 106 | 0.9 | 3.5 | 0.00 | 0.00 | 0.00 | 62 | 1016.6 |
| 20260509120052 | 68 | 90 | 0.0 | 2.6 | 0.00 | 0.00 | 0.00 | 60 | 1016.7 |
| 20260509112100 | 65 | 180 | 0.0 | 2.6 | 0.00 | 0.00 | 0.00 | 65 | 1017.1 |
| 20260509111037 | 65 | 180 | 0.0 | 2.6 | 0.00 | 0.00 | 0.00 | 65 | 1017.2 |
| 20260509110033 | 64 | 90 | 0.0 | 1.7 | 0.00 | 0.00 | 0.00 | 67 | 1017.3 |
| 20260509105050 | 65 | 0 | 0.9 | 2.6 | 0.00 | 0.00 | 0.00 | 68 | 1017.5 |
| 20260509104027 | 65 | 45 | 0.0 | 2.6 | 0.00 | 0.00 | 0.00 | 66 | 1017.5 |
| 20260509103024 | 65 | 270 | 0.0 | 2.6 | 0.00 | 0.00 | 0.00 | 70 | 1017.5 |
| 20260509102041 | 64 | 29 | 0.0 | 1.7 | 0.00 | 0.00 | 0.00 | 69 | 1017.5 |
| 20260509100115 | 63 | 90 | 0.0 | 1.7 | 0.00 | 0.00 | 0.00 | 72 | 1017.6 |
| 20260509095111 | 62 | 90 | 0.0 | 2.6 | 0.00 | 0.00 | 0.00 | 76 | 1017.6 |
| 20260509094108 | 61 | 75 | 0.9 | 1.7 | 0.00 | 0.00 | 0.00 | 76 | 1017.7 |
| 20260509093105 | 61 | 90 | 0.0 | 1.7 | 0.00 | 0.00 | 0.00 | 79 | 1017.7 |
| 20260509092102 | 60 | 0.0 | 0.9 | 0.00 | 0.00 | 0.00 | 77 | 1017.8 | |
| 20260509091059 | 59 | 135 | 0.0 | 2.6 | 0.00 | 0.00 | 0.00 | 79 | 1017.8 |
| 20260509090056 | 59 | 0.0 | 0.9 | 0.00 | 0.00 | 0.00 | 79 | 1018.0 | |
| 20260509085053 | 58 | 0.0 | 1.7 | 0.00 | 0.00 | 0.00 | 80 | 1018.1 | |
| 20260509084050 | 57 | 0 | 0.0 | 1.7 | 0.00 | 0.00 | 0.00 | 83 | 1018.0 |
| 20260509082043 | 56 | 0.0 | 1.7 | 0.00 | 0.00 | 0.00 | 85 | 1018.1 | |
| 20260509081120 | 55 | 0.0 | 0.0 | 0.00 | 0.00 | 0.00 | 86 | 1018.2 | |
| 20260509080037 | 56 | 225 | 0.0 | 3.5 | 0.00 | 0.00 | 0.00 | 87 | 1018.1 |
| 20260509075034 | 55 | 74 | 0.0 | 1.7 | 0.00 | 0.00 | 0.00 | 85 | 1018.1 |
| 20260509074031 | 54 | 0.0 | 0.9 | 0.00 | 0.00 | 0.00 | 85 | 1018.2 | |
| 20260509064112 | 50 | 270 | 0.0 | 1.7 | 0.00 | 0.00 | 0.00 | 93 | 1018.2 |
| 20260509063109 | 49 | 0.0 | 1.7 | 0.00 | 0.00 | 0.00 | 95 | 1018.2 | |
| 20260509062109 | 48 | 293 | 0.9 | 3.5 | 0.00 | 0.00 | 0.00 | 95 | 1018.1 |
| 20260509061122 | 47 | 0.0 | 1.7 | 0.00 | 0.00 | 0.00 | 97 | 1018.1 | |
| 20260509053110 | 46 | 0.0 | 0.9 | 0.00 | 0.00 | 0.00 | 99 | 1018.1 | |
| 20260509052046 | 46 | 0.0 | 0.0 | 0.00 | 0.00 | 0.00 | 99 | 1018.0 | |
| 20260509050040 | 43 | 0.0 | 0.0 | 0.00 | 0.00 | 0.00 | 99 | 1017.9 | |
| 20260509045037 | 43 | 0.0 | 0.0 | 0.00 | 0.00 | 0.00 | 99 | 1017.9 | |
| 20260509043031 | 41 | 0.0 | 0.0 | 0.00 | 0.00 | 0.00 | 99 | 1017.6 | |
| 20260509042027 | 40 | 0.0 | 0.0 | 0.00 | 0.00 | 0.00 | 99 | 1017.8 | |
| 20260509041024 | 40 | 0.0 | 0.0 | 0.00 | 0.00 | 0.00 | 99 | 1017.7 | |
| 20260509040021 | 39 | 0.0 | 0.0 | 0.00 | 0.00 | 0.00 | 99 | 1017.6 | |
| 20260509034135 | 39 | 0.0 | 0.0 | 0.00 | 0.00 | 0.00 | 99 | 1017.6 | |
| 20260509031126 | 40 | 0.0 | 0.0 | 0.00 | 0.00 | 0.00 | 99 | 1017.7 | |
| 20260509025059 | 40 | 0.0 | 0.0 | 0.00 | 0.00 | 0.00 | 99 | 1017.8 | |
| 20260509024056 | 40 | 0.0 | 0.0 | 0.00 | 0.00 | 0.00 | 99 | 1017.8 | |
| 20260509023053 | 40 | 0.0 | 0.0 | 0.00 | 0.00 | 0.00 | 99 | 1017.8 | |
| 20260509022049 | 40 | 0.0 | 0.0 | 0.00 | 0.00 | 0.00 | 99 | 1017.7 | |
| 20260509021127 | 40 | 0.0 | 0.0 | 0.00 | 0.00 | 0.00 | 99 | 1017.8 | |
| 20260509014037 | 40 | 0.0 | 0.0 | 0.00 | 0.00 | 0.00 | 99 | 1017.7 | |
| 20260509013034 | 40 | 0.0 | 0.0 | 0.00 | 0.00 | 0.00 | 99 | 1017.8 | |
| 20260509012031 | 40 | 0.0 | 0.0 | 0.00 | 0.00 | 0.00 | 99 | 1017.8 | |
| 20260509011047 | 40 | 0.0 | 0.0 | 0.00 | 0.00 | 0.00 | 99 | 1017.7 | |
| 20260509010025 | 41 | 0.0 | 0.0 | 0.00 | 0.00 | 0.00 | 99 | 1017.8 | |
| 20260509005022 | 41 | 0.0 | 0.0 | 0.00 | 0.00 | 0.00 | 99 | 1017.8 | |
| 20260509003015 | 41 | 0.0 | 0.0 | 0.00 | 0.00 | 0.00 | 99 | 1017.9 | |
| 20260509002112 | 41 | 0.0 | 0.0 | 0.00 | 0.00 | 0.00 | 99 | 1017.9 | |
| 20260509001129 | 41 | 0.0 | 0.0 | 0.00 | 0.00 | 0.00 | 99 | 1018.0 | |
| 20260509000106 | 41 | 0.0 | 0.0 | 0.00 | 0.00 | 0.00 | 99 | 1018.1 | |
| 20260508235103 | 41 | 0.0 | 0.0 | 0.00 | 0.00 | 0.00 | 99 | 1018.1 | |
| 20260508233056 | 42 | 0.0 | 0.0 | 0.00 | 0.00 | 0.00 | 99 | 1018.1 | |
| 20260508232113 | 42 | 0.0 | 1.7 | 0.00 | 0.01 | 0.00 | 99 | 1018.1 | |
| 20260508225043 | 43 | 0.0 | 0.9 | 0.00 | 0.01 | 0.00 | 99 | 1018.1 | |
| 20260508224100 | 44 | 0.0 | 1.7 | 0.00 | 0.01 | 0.00 | 99 | 1018.0 | |
| 20260508223037 | 44 | 0.0 | 1.7 | 0.00 | 0.01 | 0.00 | 99 | 1018.1 | |
| 20260508222034 | 44 | 0.0 | 1.7 | 0.00 | 0.01 | 0.00 | 99 | 1018.1 | |
| 20260508221031 | 44 | 0.0 | 0.0 | 0.00 | 0.01 | 0.00 | 99 | 1018.1 | |
| 20260508215017 | 44 | 0.0 | 0.0 | 0.00 | 0.01 | 0.01 | 99 | 1018.0 | |
| 20260508213111 | 44 | 0.0 | 0.0 | 0.00 | 0.01 | 0.01 | 99 | 1018.0 | |
| 20260508212108 | 44 | 0.0 | 0.0 | 0.00 | 0.01 | 0.01 | 99 | 1018.0 | |
| 20260508205058 | 45 | 0.0 | 0.9 | 0.00 | 0.01 | 0.01 | 99 | 1017.9 | |
| 20260508204135 | 45 | 0.0 | 0.0 | 0.00 | 0.01 | 0.01 | 99 | 1017.9 | |
| 20260508201045 | 46 | 0.0 | 0.0 | 0.00 | 0.01 | 0.01 | 99 | 1017.7 | |
| 20260508200043 | 46 | 0.0 | 1.7 | 0.00 | 0.01 | 0.01 | 99 | 1017.8 | |
| 20260508195059 | 46 | 0.0 | 0.0 | 0.00 | 0.01 | 0.01 | 99 | 1017.6 | |
| 20260508194036 | 46 | 0.0 | 0.0 | 0.00 | 0.01 | 0.01 | 98 | 1017.5 | |
| 20260508191026 | 48 | 0.0 | 0.0 | 0.00 | 0.01 | 0.01 | 97 | 1017.0 | |
| 20260508190023 | 49 | 0.0 | 0.0 | 0.00 | 0.01 | 0.01 | 97 | 1016.9 | |
| 20260508185023 | 51 | 0.0 | 0.0 | 0.00 | 0.01 | 0.01 | 94 | 1016.8 | |
| 20260508184017 | 53 | 0.0 | 0.0 | 0.00 | 0.01 | 0.01 | 91 | 1016.6 | |
| 20260508182111 | 55 | 0.0 | 1.7 | 0.00 | 0.01 | 0.01 | 83 | 1016.4 | |
| 20260508181107 | 56 | 135 | 0.0 | 2.6 | 0.00 | 0.01 | 0.01 | 81 | 1016.3 |
| 20260508175122 | 57 | 108 | 0.9 | 2.6 | 0.00 | 0.01 | 0.01 | 78 | 1016.3 |
| 20260508174058 | 58 | 90 | 0.9 | 3.5 | 0.00 | 0.01 | 0.01 | 76 | 1016.2 |
| 20260508173135 | 58 | 45 | 0.0 | 1.7 | 0.00 | 0.02 | 0.01 | 75 | 1016.2 |
| 20260508172052 | 58 | 0.0 | 1.7 | 0.00 | 0.02 | 0.01 | 74 | 1016.1 | |
| 20260508171048 | 59 | 66 | 0.9 | 2.6 | 0.00 | 0.02 | 0.01 | 73 | 1016.1 |
| 20260508170046 | 60 | 354 | 0.9 | 1.7 | 0.00 | 0.02 | 0.01 | 70 | 1015.9 |
| 20260508165042 | 62 | 0.0 | 0.0 | 0.00 | 0.02 | 0.01 | 61 | 1015.9 | |
| 20260508164039 | 62 | 77 | 0.9 | 3.5 | 0.00 | 0.02 | 0.01 | 61 | 1016.0 |
| 20260508163056 | 63 | 90 | 0.0 | 1.7 | 0.00 | 0.02 | 0.01 | 63 | 1015.9 |
| 20260508162033 | 64 | 99 | 0.9 | 3.5 | 0.00 | 0.02 | 0.01 | 60 | 1015.9 |
| 20260508161030 | 64 | 68 | 0.0 | 1.7 | 0.00 | 0.02 | 0.01 | 63 | 1015.9 |
| 20260508160047 | 63 | 348 | 0.9 | 1.7 | 0.00 | 0.02 | 0.01 | 63 | 1015.9 |
| 20260508155024 | 61 | 0.0 | 1.7 | 0.00 | 0.02 | 0.01 | 65 | 1015.9 | |
| 20260508153017 | 63 | 270 | 0.0 | 1.7 | 0.00 | 0.02 | 0.01 | 64 | 1015.9 |
| 20260508152115 | 64 | 113 | 0.0 | 1.7 | 0.00 | 0.02 | 0.01 | 63 | 1015.9 |